This demonstration page uses our WeatherBlox Daily Observations layout. Learn more.

Left ArrowRight Arrow

39.01783, -85.05884

Hourly Observations for October 21, 2016

Temp ( °F °C ) Dew Point ( °F °C ) Humidity (%) Winds ( mph kmh ) Pressure ( in mb ) Visibility ( mi km ) Precip ( " mm )
12:06 am 00:06 Cloudy with Light Rain 54 12 54 12 100 100 NNW 13 20 29.91 1013 9 14 0.00 0.00
12:52 am 00:52 Cloudy with Light Rain 57 14 50 10.2 78 78 N 16 26 29.91 1013 8 13 0.00 0.00
1:27 am 01:27 Cloudy 54 12 52 11 94 94 N 15 24 29.88 1012 10 16 0.01 0.25
1:52 am 01:52 Cloudy 54 12.2 52 11.1 93 93 NNW 20 31 29.88 1012 10 16 0.01 0.25
2:15 am 02:15 Cloudy with Drizzle 54 12 52 11 94 94 NNW 17 28 29.88 1012 4 6 0.00 0.03
2:52 am 02:52 Cloudy with Drizzle 53 11.7 52 11.1 96 96 NNW 15 24 29.89 1012 3 5 0.02 0.51
3:52 am 03:52 Cloudy with Drizzle 53 11.7 52 11.1 96 96 NNW 15 24 29.91 1013 4 6 0.03 0.76
4:40 am 04:40 Cloudy with Light Rain 52 11 52 11 100 100 NNW 18 30 29.91 1013 9 14 0.00 0.00
4:52 am 04:52 Cloudy with Light Rain 52 11.1 51 10.6 97 97 NNW 15 24 29.90 1012 8 13 0.02 0.51
5:34 am 05:34 Cloudy with Rain 52 11 50 10 94 94 NNW 22 35 29.91 1013 4 6 0.00 0.00
5:52 am 05:52 Cloudy with Rain 52 11.1 50 10 93 93 NNW 15 24 29.93 1013 7 11 0.09 2.29
6:52 am 06:52 Cloudy 51 10.6 50 10 96 96 NNW 15 24 29.95 1014 8 13 0.03 0.76
7:52 am 07:52 Cloudy 51 10.6 50 10 96 96 NNW 16 26 29.96 1015 10 16 0.00 0.00
8:06 am 08:06 Cloudy 52 11 48 9 88 88 NNW 22 35 29.97 1015 10 16 0.00 0.00
8:34 am 08:34 Cloudy 52 11 48 9 88 88 N 18 30 29.97 1015 10 16 0.00 0.00
8:52 am 08:52 Cloudy 51 10.6 48 8.9 89 89 N 20 31 29.98 1015 10 16 0.00 0.00
9:52 am 09:52 Cloudy 51 10.6 48 8.9 89 89 NNW 12 19 30.00 1016 10 16 0.00 0.00
10:52 am 10:52 Mostly Cloudy 53 11.7 47 8.3 80 80 NNW 14 22 30.01 1016 10 16 0.00 0.00
11:29 am 11:29 Partly Cloudy 54 12 46 8 77 77 NNW 20 31 30.03 1017 10 16 0.00 0.00
11:52 am 11:52 Mostly Cloudy 55 12.8 47 8.3 74 74 NW 17 28 30.02 1017 10 16 0.00 0.00
12:44 pm 12:44 Mostly Cloudy 55 13 45 7 67 67 NNW 10 17 30.03 1017 10 16 0.00 0.00
12:52 pm 12:52 Mostly Cloudy 54 12.2 46 7.8 75 75 NW 20 31 30.03 1017 10 16 0.00 0.00
1:10 pm 13:10 Mostly Cloudy 55 13 45 7 67 67 NW 13 20 30.03 1017 10 16 0.00 0.00
1:52 pm 13:52 Cloudy 54 12.2 44 6.7 69 69 NW 16 26 30.02 1017 10 16 0.00 0.00
2:52 pm 14:52 Cloudy 52 11.1 42 5.6 69 69 NNW 14 22 30.02 1017 10 16 0.00 0.00
3:39 pm 15:39 Mostly Cloudy 54 12 43 6 67 67 N 12 19 30.03 1017 10 16 0.00 0.00
3:52 pm 15:52 Mostly Cloudy 54 12.2 42 5.6 64 64 NNW 13 20 30.01 1016 10 16 0.00 0.00
4:52 pm 16:52 Cloudy 54 12.2 40 4.4 59 59 NW 15 24 30.02 1017 10 16 0.00 0.00
5:52 pm 17:52 Mostly Cloudy 53 11.7 38 3.3 57 57 NNW 10 17 30.03 1017 10 16 0.00 0.00
6:52 pm 18:52 Mostly Cloudy 52 11.1 38 3.3 59 59 NNW 10 17 30.04 1017 10 16 0.00 0.00
7:52 pm 19:52 Mostly Cloudy 51 10.6 39 3.9 64 64 NW 8 13 30.04 1017 10 16 0.00 0.00
8:52 pm 20:52 Cloudy 51 10.6 39 3.9 64 64 NW 9 15 30.05 1018 10 16 0.00 0.00
9:52 pm 21:52 Mostly Cloudy 50 10 38 3.3 63 63 NW 8 13 30.04 1017 10 16 0.00 0.00
10:52 pm 22:52 Mostly Cloudy 49 9.4 38 3.3 66 66 NW 6 9 30.04 1017 10 16 0.00 0.00
11:52 pm 23:52 Mostly Cloudy 47 8.3 38 3.3 71 71 NW 5 7 30.04 1017 10 16 0.00 0.00

Powered by AerisWeather